Tracking 22458 objects as of 2-Mar-2021
HD Live streaming from Space Station
objects crossing your sky now

FLOCK 4A 14

Track FLOCK 4A 14 now!
10-day predictions
FLOCK 4A 14 is classified as:


NORAD ID: 44101
Int'l Code: 2019-018Z
Perigee: 493.3 km
Apogee: 508.7 km
Inclination: 97.4 °
Period: 94.5 minutes
Semi major axis: 6871 km
RCS: Unknown
Launch date: April 1, 2019
Source: United States (US)
Launch site: SRIHARIKOTA (SRI)
aabbcc
Your satellite tracking list
Your tracking list is empty




NASA's NSSDC Master Catalog

Two Line Element Set (TLE):
1 44101U 19018Z   21061.41551900  .00000889  00000-0  39627-4 0  9990
2 44101  97.3771 124.9210 0011166   6.6641 353.4743 15.23977918106719
Source of the keplerian elements: AFSPC